{"data":{"norad_id":62235,"intl_designator":"2024-231T","name":"STARLINK-32631","alt_names":[],"object_type":"PAYLOAD","status":"ACTIVE","operator":null,"country":"US","launch_date":"2024-12-05","launch_site_code":"AFWTR","launch_vehicle":null,"mission":null,"orbit_class":"UNKNOWN","rcs_meters":null,"size_class":null,"mass_kg":null,"dimensions":null,"purposes":["comms"],"wikipedia_slug":null,"has_3d_model":false,"image_url":null,"decayed_at":null,"tle_current":{"epoch":"2026-09-21T13:41:18.249504Z","epoch_age_seconds":85211,"freshness":"FRESH","line1":"1 62235U 24231T   26264.57035011  .00040192  00000+0  12984-2 0  9993","line2":"2 62235  53.1628  15.2285 0001489  80.7166 279.4004 15.31737567101955","mean_motion":15.31737567,"eccentricity":0.0001489,"inclination_deg":53.1628,"raan_deg":15.2285,"arg_perigee_deg":80.7166,"mean_anomaly_deg":279.4004,"bstar":0.0012984,"rev_number":10195,"period_min":94.01088221792,"perigee_km":469.60823113193,"apogee_km":471.64779335257,"semimajor_km":6848.7650122423,"source":"CELESTRAK","updated_at":"2026-09-22T09:00:49.564906Z"}}}